When you browse on this site, cookies collect data to enhance your experience and personalize the content and advertising you see.
Visit our Privacy Policy to learn more. By continuing to use the site, you agree to this use of cookies and data.
  • In Latvia
  • List of Countries
  • For 7 days
  • Water Temperature
  • Satellite Maps
  • Weather Map
  • Weather Widgets
  • user-avatar
    Login

    Hourly Weather Kyahta

    Today, 17 June, Monday

    Time Temperature Precipitation Wind Pressure Humidity
    00:00 +12°C° 0 mm 2 mps 742 mmHg 87%
    01:00 +12°C° 0 mm 2 mps 742 mmHg 88%
    02:00 +10°C° 0 mm 2 mps 742 mmHg 90%
    03:00 +10°C° 0 mm 2 mps 742 mmHg 91%
    04:00 +12°C° 0 mm 2 mps 743 mmHg 88%
    05:00 +13°C° 0 mm 2 mps 743 mmHg 85%
    06:00 +15°C° 0 mm 2 mps 743 mmHg 81%
    07:00 +16°C° 0 mm 2 mps 743 mmHg 75%
    08:00 +18°C° 0 mm 2 mps 743 mmHg 69%
    09:00 +19°C° 0 mm 2 mps 743 mmHg 63%
    10:00 +20°C° 0 mm 2 mps 743 mmHg 60%
    11:00 +21°C° 0 mm 3 mps 743 mmHg 58%
    12:00 +21°C° 0 mm 3 mps 743 mmHg 56%
    13:00 +22°C° 0 mm 3 mps 743 mmHg 54%
    14:00 +22°C° 0 mm 3 mps 743 mmHg 53%
    15:00 +24°C° 0 mm 3 mps 743 mmHg 52%
    16:00 +22°C° 0 mm 3 mps 743 mmHg 57%
    17:00 +23°C° 0 mm 2 mps 743 mmHg 62%
    18:00 +23°C° 0 mm 2 mps 742 mmHg 67%
    19:00 +20°C° 0 mm 2 mps 742 mmHg 72%
    20:00 +18°C° 0 mm 2 mps 742 mmHg 76%
    21:00 +16°C° 0 mm 2 mps 742 mmHg 81%
    22:00 +16°C° 0 mm 2 mps 742 mmHg 81%
    23:00 +16°C° 0 mm 3 mps 742 mmHg 81%

    Tomorrow, 18 June, Tuesday

    Time Temperature Precipitation Wind Pressure Humidity
    00:00 +16°C° 0 mm 3 mps 742 mmHg 81%
    01:00 +16°C° 0 mm 3 mps 742 mmHg 84%
    02:00 +14°C° 0 mm 3 mps 742 mmHg 86%
    03:00 +13°C° 0 mm 3 mps 742 mmHg 89%
    04:00 +14°C° 0 mm 3 mps 743 mmHg 86%
    05:00 +16°C° 0 mm 3 mps 743 mmHg 84%
    06:00 +17°C° 0 mm 3 mps 743 mmHg 81%
    07:00 +19°C° 0.1 mm 2 mps 743 mmHg 76%
    08:00 +20°C° 0.1 mm 2 mps 743 mmHg 71%
    09:00 +23°C° 0.1 mm 2 mps 743 mmHg 66%
    10:00 +23°C° 0.3 mm 2 mps 743 mmHg 64%
    11:00 +24°C° 0.3 mm 2 mps 743 mmHg 62%
    12:00 +24°C° 0.3 mm 1 mps 743 mmHg 61%
    13:00 +24°C° 0.5 mm 2 mps 742 mmHg 61%
    14:00 +24°C° 0.5 mm 2 mps 742 mmHg 62%
    15:00 +25°C° 0.5 mm 2 mps 741 mmHg 63%
    16:00 +24°C° 0.4 mm 2 mps 741 mmHg 68%
    17:00 +24°C° 0.4 mm 2 mps 741 mmHg 73%
    18:00 +23°C° 0.4 mm 2 mps 741 mmHg 78%
    19:00 +21°C° 0.4 mm 2 mps 741 mmHg 81%
    20:00 +19°C° 0.4 mm 2 mps 741 mmHg 85%
    21:00 +18°C° 0.4 mm 2 mps 741 mmHg 88%
    22:00 +17°C° 0 mm 2 mps 741 mmHg 88%
    23:00 +18°C° 0 mm 1 mps 741 mmHg 88%

    Day after tomorrow, 19 June, Wednesday

    Time Temperature Precipitation Wind Pressure Humidity
    00:00 +16°C° 0 mm 1 mps 741 mmHg 88%
    01:00 +16°C° 0 mm 1 mps 741 mmHg 89%
    02:00 +15°C° 0 mm 1 mps 741 mmHg 90%
    03:00 +15°C° 0 mm 1 mps 741 mmHg 91%
    04:00 +16°C° 0 mm 1 mps 741 mmHg 89%
    05:00 +18°C° 0 mm 1 mps 741 mmHg 87%
    06:00 +19°C° 0 mm 1 mps 741 mmHg 86%
    07:00 +20°C° 0.3 mm 1 mps 741 mmHg 81%
    08:00 +20°C° 0.3 mm 2 mps 741 mmHg 77%
    09:00 +21°C° 0.3 mm 2 mps 741 mmHg 72%
    10:00 +23°C° 0.6 mm 2 mps 741 mmHg 69%
    11:00 +24°C° 0.6 mm 3 mps 741 mmHg 66%
    12:00 +24°C° 0.6 mm 3 mps 742 mmHg 63%
    13:00 +25°C° 0.3 mm 3 mps 742 mmHg 63%
    14:00 +25°C° 0.3 mm 3 mps 741 mmHg 63%
    15:00 +25°C° 0.3 mm 3 mps 741 mmHg 62%
    16:00 +24°C° 0.2 mm 3 mps 742 mmHg 66%
    17:00 +24°C° 0.2 mm 3 mps 742 mmHg 71%
    18:00 +22°C° 0.2 mm 3 mps 742 mmHg 75%
    19:00 +21°C° 0 mm 3 mps 742 mmHg 80%
    20:00 +19°C° 0 mm 3 mps 742 mmHg 86%
    21:00 +17°C° 0 mm 3 mps 743 mmHg 91%
    22:00 +17°C° 0 mm 3 mps 743 mmHg 90%
    23:00 +16°C° 0 mm 3 mps 743 mmHg 90%

    20 June, Thursday

    Time Temperature Precipitation Wind Pressure Humidity
    00:00 +16°C° 0 mm 3 mps 743 mmHg 89%
    01:00 +14°C° 0 mm 3 mps 743 mmHg 89%
    02:00 +14°C° 0 mm 3 mps 744 mmHg 88%
    03:00 +13°C° 0 mm 3 mps 744 mmHg 88%
    04:00 +14°C° 0 mm 3 mps 744 mmHg 85%
    05:00 +16°C° 0 mm 3 mps 744 mmHg 82%
    06:00 +17°C° 0 mm 2 mps 745 mmHg 79%
    07:00 +18°C° 0 mm 3 mps 745 mmHg 73%
    08:00 +20°C° 0 mm 3 mps 745 mmHg 68%
    09:00 +21°C° 0 mm 3 mps 745 mmHg 63%
    10:00 +22°C° 0 mm 3 mps 746 mmHg 60%
    11:00 +24°C° 0 mm 3 mps 746 mmHg 56%
    12:00 +25°C° 0 mm 3 mps 746 mmHg 53%
    13:00 +25°C° 0 mm 2 mps 746 mmHg 52%
    14:00 +26°C° 0 mm 2 mps 746 mmHg 52%
    15:00 +26°C° 0 mm 2 mps 746 mmHg 52%
    16:00 +26°C° 0 mm 2 mps 746 mmHg 57%
    17:00 +25°C° 0 mm 1 mps 746 mmHg 61%
    18:00 +25°C° 0 mm 1 mps 746 mmHg 66%
    19:00 +23°C° 0 mm 1 mps 746 mmHg 70%
    20:00 +21°C° 0 mm 1 mps 746 mmHg 73%
    21:00 +20°C° 0 mm 1 mps 746 mmHg 77%
    22:00 +19°C° 0 mm 1 mps 746 mmHg 78%
    23:00 +19°C° 0 mm 1 mps 747 mmHg 80%

    21 June, Friday

    Time Temperature Precipitation Wind Pressure Humidity
    00:00 +18°C° 0 mm 1 mps 747 mmHg 81%
    01:00 +18°C° 0 mm 1 mps 747 mmHg 82%
    02:00 +18°C° 0 mm 1 mps 747 mmHg 83%
    03:00 +18°C° 0 mm 1 mps 747 mmHg 84%
    04:00 +19°C° 0 mm 1 mps 747 mmHg 82%
    05:00 +20°C° 0 mm 1 mps 747 mmHg 80%
    06:00 +21°C° 0 mm 1 mps 748 mmHg 78%
    07:00 +22°C° 0 mm 1 mps 748 mmHg 73%
    08:00 +24°C° 0 mm 2 mps 748 mmHg 68%
    09:00 +25°C° 0 mm 2 mps 748 mmHg 63%
    10:00 +26°C° 0.4 mm 2 mps 748 mmHg 60%
    11:00 +27°C° 0.4 mm 3 mps 748 mmHg 58%
    12:00 +27°C° 0.4 mm 3 mps 748 mmHg 56%
    13:00 +27°C° 0 mm 3 mps 748 mmHg 54%
    14:00 +27°C° 0 mm 3 mps 748 mmHg 53%
    15:00 +27°C° 0 mm 3 mps 748 mmHg 51%
    16:00 +27°C° 0 mm 3 mps 747 mmHg 56%
    17:00 +26°C° 0 mm 3 mps 747 mmHg 60%
    18:00 +25°C° 0 mm 2 mps 747 mmHg 65%
    19:00 +24°C° 0 mm 2 mps 747 mmHg 66%
    20:00 +22°C° 0 mm 1 mps 748 mmHg 66%
    21:00 +20°C° 0 mm 1 mps 748 mmHg 67%
    22:00 +20°C° 0 mm 1 mps 748 mmHg 68%
    23:00 +19°C° 0 mm 1 mps 748 mmHg 69%

    22 June, Saturday

    Time Temperature Precipitation Wind Pressure Humidity
    00:00 +19°C° 0 mm 1 mps 748 mmHg 71%
    01:00 +19°C° 0 mm 1 mps 748 mmHg 72%
    02:00 +18°C° 0 mm 1 mps 748 mmHg 72%
    03:00 +18°C° 0 mm 1 mps 748 mmHg 73%
    04:00 +19°C° 0 mm 1 mps 749 mmHg 73%
    05:00 +20°C° 0 mm 1 mps 749 mmHg 72%
    06:00 +21°C° 0 mm 1 mps 749 mmHg 71%
    07:00 +23°C° 0 mm 1 mps 749 mmHg 67%
    08:00 +24°C° 0 mm 1 mps 749 mmHg 63%
    09:00 +26°C° 0 mm 1 mps 749 mmHg 58%
    10:00 +25°C° 0 mm 0 mps 749 mmHg 55%
    11:00 +26°C° 0 mm 0 mps 749 mmHg 51%
    12:00 +26°C° 0 mm 0 mps 749 mmHg 47%
    13:00 +26°C° 0 mm 0 mps 749 mmHg 47%
    14:00 +29°C° 0 mm 1 mps 749 mmHg 46%
    15:00 +29°C° 0 mm 1 mps 749 mmHg 45%
    16:00 +28°C° 0 mm 1 mps 749 mmHg 50%
    17:00 +28°C° 0 mm 1 mps 748 mmHg 55%
    18:00 +28°C° 0 mm 1 mps 748 mmHg 60%
    19:00 +26°C° 0 mm 1 mps 748 mmHg 62%
    20:00 +24°C° 0 mm 1 mps 749 mmHg 64%
    21:00 +22°C° 0 mm 1 mps 749 mmHg 66%
    22:00 +21°C° 0 mm 1 mps 749 mmHg 68%
    23:00 +21°C° 0 mm 1 mps 749 mmHg 69%
    Show more